Temperature
23 25 25 26 26 27 27 26 27 28 28 27 27 28 28 27 27 27 27 26 24 23 20 19 18 17 17 17 17 17 17 17 17 17 17 16 16 16 15 15 15 15 14 14
24 24 26 26 26 25 25 25 26 27 27 26 27 27 28 27 27 26 26 25 24 22 18 17 17 16 16 16 16 17 17 17 17 17 16 16 16 15 14 14 14 14 13 13
24 26 26 25 24 24 25 25 26 26 27 26 26 26 27 27 25 25 24 24 23 21 18 16 16 16 16 15 16 16 16 16 16 16 15 15 15 14 13 13 13 12 12 12
25 26 24 24 24 24 25 26 25 25 25 26 26 26 28 27 26 25 24 24 23 21 18 16 15 15 15 15 15 15 15 15 15 15 14 14 14 13 13 12 12 11 11 10
25 25 24 24 25 25 25 26 25 25 25 25 26 25 27 27 26 27 26 24 22 21 18 16 15 14 14 14 14 14 14 14 14 14 13 13 13 12 12 11 11 10 9 9
26 26 25 25 26 26 25 25 25 25 25 24 25 25 26 28 27 28 27 24 22 20 17 15 14 14 13 13 13 13 13 13 13 13 13 13 12 12 11 11 10 9 8 7
24 25 25 25 25 25 25 24 23 24 24 25 27 26 26 28 28 28 27 24 21 18 16 14 13 13 13 13 13 12 12 12 12 12 12 12 12 11 10 9 8 8 8 7
24 24 25 25 25 25 25 24 23 23 24 26 26 25 27 28 27 26 25 24 21 18 15 13 13 12 12 12 12 12 12 12 11 12 12 11 11 10 9 9 8 7 7 6
25 25 26 26 26 26 25 25 25 24 24 24 25 26 27 27 26 26 25 23 20 17 15 13 12 12 12 12 11 11 11 11 11 11 11 10 10 9 8 7 7 6 6 5
24 24 25 25 25 25 26 26 25 24 22 22 24 25 26 27 27 27 25 23 20 17 14 12 12 11 11 11 11 10 10 10 10 10 10 9 9 8 7 6 6 5 5 5
23 23 24 24 24 25 24 24 24 24 24 23 23 25 27 27 26 26 25 23 20 17 14 12 11 11 10 10 10 10 9 9 9 9 9 9 8 7 6 6 5 5 4 4
21 22 23 24 25 24 25 25 24 23 23 24 23 25 27 26 26 25 24 22 20 17 14 12 11 10 9 9 9 9 9 9 9 9 9 8 7 6 5 5 5 4 4 4
20 21 21 22 23 23 23 24 24 24 23 23 23 24 26 25 25 24 23 22 19 16 14 12 10 9 9 9 9 9 9 9 9 8 8 7 6 5 5 4 4 4 4 4
18 20 21 22 22 22 22 22 22 22 23 23 24 24 25 25 24 24 22 21 18 15 13 12 10 9 9 8 8 8 8 8 8 8 7 6 5 5 5 4 4 4 4 4
19 19 20 20 21 21 21 21 22 21 22 22 23 23 24 24 23 22 21 19 17 14 12 11 10 9 8 8 8 8 8 8 7 7 6 5 5 5 4 4 4 4 4 4
17 18 18 18 20 20 20 20 21 21 21 21 22 22 23 22 21 20 19 18 16 14 12 10 9 8 7 7 7 7 7 7 6 6 5 5 5 5 4 4 4 4 4 4
17 17 17 18 19 18 18 20 20 20 21 21 20 21 20 19 19 18 17 16 15 13 11 10 9 8 7 6 6 6 6 6 5 5 5 5 5 5 5 4 4 4 4 3
15 16 16 17 17 16 19 18 17 17 18 18 18 18 17 16 15 14 14 14 13 11 9 8 7 6 6 5 5 5 5 5 4 4 5 5 5 5 4 4 4 3 3 2
14 15 16 16 17 17 18 16 15 16 17 16 15 16 15 14 14 12 11 11 10 9 8 7 6 6 5 5 4 5 4 4 4 5 5 5 4 4 4 3 2 2 1 1
14 14 15 15 14 15 16 15 15 15 16 14 14 14 14 14 14 11 8 8 7 7 6 6 5 5 4 4 4 4 4 4 4 4 4 4 3 3 2 2 1 1 0 0
14 14 14 14 14 16 14 14 15 15 15 13 12 12 12 11 10 7 6 6 6 5 5 4 4 4 3 3 3 3 4 4 4 4 3 3 2 2 1 1 0 -0 -0 -1
14 14 14 14 13 14 13 13 13 13 11 11 11 10 9 7 6 6 5 5 4 4 4 4 3 3 3 3 3 4 4 4 3 3 3 2 1 1 1 0 -0 -0 -1 -1
13 13 13 13 13 12 11 11 10 10 10 9 9 8 7 6 5 5 4 4 3 3 3 3 3 3 3 3 4 4 4 3 3 2 2 1 1 0 0 0 0 -0 -1 -1
13 12 12 12 12 11 9 9 8 8 8 8 7 7 6 5 4 4 4 3 3 3 3 3 3 3 3 4 4 4 3 3 2 2 1 1 1 1 -0 -0 -0 -1 -1 -1
12 11 11 11 11 9 8 7 7 7 6 6 6 6 5 5 4 4 3 3 3 3 3 4 4 4 4 4 4 3 3 2 2 2 2 1 1 1 0 -0 -1 -1 -2 -2
11 10 10 10 9 8 7 6 6 6 6 6 6 5 5 5 4 4 4 4 4 4 4 4 5 5 4 4 3 3 2 2 2 2 2 2 2 1 1 -0 -1 -1 -2 -2
Wind_Speed
11 12 16 16 17 16 11 12 14 13 7 9 13 13 11 8 10 12 13 14 16 16 13 11 11 11 11 11 12 12 12 12 10 8 8 7 7 7 7 8 10 9 9 9
10 16 16 11 11 13 14 16 16 14 9 9 13 15 13 11 12 12 13 14 16 15 13 12 11 11 12 12 12 12 12 12 10 8 7 6 8 7 7 8 8 8 8 7
17 6 9 12 13 14 16 17 17 15 12 12 13 19 18 13 12 12 14 14 16 17 17 14 14 13 12 12 12 10 11 11 10 11 9 9 7 7 6 6 5 6 6 5
15 13 9 12 15 15 16 14 15 15 15 15 12 16 16 14 13 15 16 16 17 17 16 15 15 14 13 11 11 11 11 11 10 10 9 9 7 6 5 3 4 4 4 3
12 13 15 16 15 14 14 10 12 14 15 17 15 14 16 10 13 16 17 17 17 16 16 15 14 14 13 12 11 11 12 11 10 9 10 8 7 6 5 4 4 2 2 2
16 8 11 13 13 12 11 9 11 13 14 19 19 18 17 12 13 13 13 16 15 15 15 14 13 14 13 12 12 12 12 12 11 10 9 8 8 6 5 3 2 1 0 0
19 16 12 10 11 10 12 12 10 11 14 17 15 13 14 10 9 10 8 12 14 15 15 16 16 15 14 14 13 13 13 12 11 10 9 8 8 7 5 2 2 1 2 1
19 16 18 16 19 15 15 16 13 12 13 12 9 11 9 4 6 8 9 10 14 16 16 17 17 17 16 16 15 14 13 13 12 10 9 8 6 4 4 2 1 1 3 3
11 13 9 13 15 18 18 18 19 18 19 17 14 14 9 9 12 12 11 12 15 16 17 18 18 17 17 17 15 14 14 13 11 11 10 8 6 5 4 2 1 2 2 3
11 10 9 8 9 13 16 14 11 14 15 18 19 18 15 11 10 9 10 13 15 17 17 18 18 18 17 16 14 13 13 12 11 10 8 7 6 4 2 1 2 3 4 4
8 11 12 9 12 15 13 14 14 14 15 17 18 13 6 5 6 8 8 11 15 18 19 19 18 18 17 16 14 14 13 12 11 10 8 7 5 3 1 2 3 4 5 5
1 6 12 13 6 5 11 15 16 16 17 17 18 17 6 4 5 7 7 8 13 17 18 18 19 18 18 16 16 14 13 12 10 9 8 6 3 1 2 3 4 5 6 7
1 4 9 12 10 8 9 10 11 13 14 16 19 16 1 2 4 5 5 6 11 15 17 17 18 18 18 16 15 14 12 11 10 8 7 4 2 1 2 4 5 6 7 8
3 5 10 14 7 2 5 7 7 11 14 18 19 18 12 9 9 9 7 6 10 14 16 17 17 17 16 15 14 14 12 10 9 7 5 3 1 1 3 4 6 7 8 9
3 8 10 12 11 11 13 14 14 15 16 18 20 19 17 15 14 13 11 8 10 14 16 16 16 15 14 14 13 12 11 9 7 5 3 1 1 2 4 5 7 8 9 10
2 6 9 13 14 15 18 19 19 20 20 21 23 22 16 13 12 11 10 8 11 14 15 15 14 14 14 13 12 11 10 8 6 3 1 0 2 4 5 6 7 8 8 9
4 5 9 13 10 11 16 13 14 15 15 16 18 14 14 13 12 11 9 7 7 10 13 13 13 12 11 10 10 10 9 7 4 1 1 1 3 4 6 6 7 7 7 7
6 7 6 8 7 10 0 6 6 7 7 7 9 11 11 10 9 9 8 4 4 10 13 14 14 13 12 11 10 9 7 5 3 1 1 2 4 5 5 5 6 6 6 6
8 8 7 7 9 9 3 5 7 6 5 7 10 12 11 8 4 8 12 10 12 14 15 15 15 15 13 10 9 8 6 3 2 1 2 4 5 5 5 5 5 5 6 6
6 8 7 7 7 6 3 7 8 7 7 9 13 13 11 9 5 5 10 15 17 17 16 17 16 14 12 9 7 6 4 3 2 3 4 5 5 5 5 5 5 6 6 7
7 7 9 10 9 6 6 10 10 8 5 14 14 12 9 6 6 9 13 16 17 18 17 16 14 12 10 8 6 5 5 4 5 5 5 6 6 5 5 5 6 7 7 7
5 5 6 6 8 3 9 10 7 10 15 14 11 7 5 11 13 14 16 16 17 17 16 14 13 11 9 6 6 6 6 5 5 6 6 6 5 5 5 5 6 7 8 8
4 3 3 3 4 7 9 9 10 11 10 8 4 4 11 14 15 16 16 16 15 15 13 12 13 12 8 5 5 7 6 6 6 6 5 5 5 5 6 6 6 7 7 8
3 2 4 5 4 7 8 8 8 6 4 4 6 10 14 16 17 16 15 14 14 13 13 12 12 10 8 7 7 7 6 5 5 5 5 4 5 5 6 6 7 7 8 8
3 2 4 6 4 3 6 7 6 7 9 11 13 14 16 17 17 16 15 14 13 12 11 10 9 10 9 9 8 7 6 5 5 5 5 5 5 6 5 6 6 7 8 8
3 3 4 2 2 1 3 5 7 10 12 13 15 16 15 16 16 16 15 14 13 12 10 10 10 10 9 9 9 8 6 5 5 5 5 5 6 6 6 6 4 3 4 3
Wind_Direction
191 212 219 220 224 246 255 252 246 243 248 259 250 246 242 228 230 231 225 216 209 202 184 174 172 170 168 166 162 156 150 145 145 143 141 133 125 119 108 95 87 82 76 71
197 226 230 231 226 233 237 243 248 249 240 256 259 253 246 237 235 234 230 222 213 193 179 175 173 173 174 167 159 152 152 151 151 141 130 125 123 114 105 98 88 83 79 73
219 231 213 210 211 222 233 242 251 257 257 251 260 255 241 229 231 232 232 226 215 202 192 183 178 175 171 163 159 152 146 144 137 133 126 124 121 130 126 117 103 87 85 81
232 224 193 209 220 225 238 239 251 258 260 258 244 267 246 221 224 228 227 222 217 205 197 189 180 173 166 156 149 143 140 137 136 140 142 143 144 139 124 122 108 107 86 72
221 222 216 224 229 226 244 253 248 253 258 264 252 258 262 221 236 236 226 219 213 202 193 186 177 165 154 146 141 136 134 131 132 130 131 132 124 121 127 128 120 124 101 69
237 212 224 234 235 230 236 239 246 249 253 253 250 253 261 229 236 247 225 212 205 194 184 173 161 150 143 140 137 137 134 129 128 126 124 120 119 123 128 131 122 193 120 355
228 222 218 226 223 205 216 229 239 238 233 249 244 247 260 258 243 252 239 208 196 186 175 164 157 154 148 145 143 142 137 132 132 127 120 116 120 128 129 124 105 316 316 313
221 226 217 220 230 231 220 230 245 260 262 263 230 242 261 233 250 256 246 215 191 183 175 169 165 160 155 151 149 148 143 138 136 127 120 120 129 123 107 87 19 344 326 336
231 232 211 218 228 236 239 236 246 259 269 275 268 268 261 243 246 245 235 211 191 182 175 170 166 162 158 156 155 152 146 142 138 131 128 126 112 90 88 109 277 318 322 306
248 243 216 207 220 226 242 247 241 245 258 262 264 261 262 255 255 244 228 209 190 179 173 170 168 165 160 157 153 150 148 143 139 136 128 116 109 104 91 335 350 321 306 302
235 238 229 213 224 230 215 227 234 249 256 266 271 271 304 262 279 273 242 210 189 181 175 170 169 165 159 155 153 153 149 145 139 126 118 114 106 89 22 300 294 293 295 294
242 244 242 233 233 288 246 237 237 248 256 258 268 275 289 264 280 281 257 212 190 180 175 170 166 163 160 159 159 156 151 143 133 122 114 106 98 97 284 289 293 290 289 289
329 240 239 230 218 214 232 238 250 253 262 264 267 276 223 200 273 287 272 218 185 174 172 169 166 165 164 162 157 151 146 135 124 116 113 114 136 225 282 293 291 290 290 290
288 252 256 261 300 317 247 240 246 255 257 265 265 277 282 290 299 303 289 239 188 176 173 170 168 167 164 159 153 145 135 128 119 117 119 127 166 269 285 287 286 288 289 290
301 255 258 270 284 283 276 272 268 265 269 274 279 284 292 305 308 306 290 248 196 182 176 173 168 162 157 152 144 136 129 118 110 109 112 127 240 275 283 287 289 289 289 291
294 269 268 265 265 271 272 269 268 267 269 272 276 278 296 313 312 304 289 252 210 189 175 166 160 153 149 144 136 127 115 105 100 104 147 204 291 289 290 291 293 295 298 304
253 258 264 267 265 277 266 269 270 272 273 278 283 302 328 321 321 318 306 273 220 180 159 151 144 137 130 125 119 110 102 101 105 139 220 295 302 304 306 306 311 319 327 334
253 252 255 265 253 250 231 42 346 303 293 326 329 338 337 335 341 354 343 310 163 140 134 129 121 112 107 105 102 100 101 109 131 173 315 326 322 321 329 338 356 3 1 355
226 234 244 249 251 260 217 44 359 318 290 18 356 348 347 347 342 34 29 56 95 109 110 108 108 107 105 103 103 102 104 118 123 38 5 4 356 357 13 29 29 17 3 355
190 218 238 237 252 256 88 18 338 289 256 30 359 347 343 336 324 52 64 81 89 93 97 102 103 104 103 104 106 104 109 105 70 45 40 41 44 46 49 42 24 15 1 355
192 204 228 240 245 263 38 350 323 266 329 353 345 342 344 10 59 93 90 89 93 96 98 100 100 100 101 104 106 106 101 81 69 71 73 69 67 64 52 38 25 10 3 1
238 234 230 241 245 251 21 347 331 320 325 325 332 348 65 93 97 97 96 96 97 97 98 100 101 100 101 107 114 105 88 83 88 89 85 75 58 44 44 32 23 17 2 1
242 279 295 267 293 354 348 329 317 312 307 317 344 78 110 108 104 101 99 98 99 101 104 107 108 108 109 111 104 92 88 94 98 95 85 73 60 47 31 20 22 18 12 6
218 247 268 275 292 346 351 350 356 359 13 55 93 108 112 110 109 108 107 107 108 110 112 116 118 117 112 102 87 86 93 99 100 92 81 66 48 46 45 24 26 22 15 8
276 258 261 268 304 3 23 26 39 64 82 92 98 106 111 113 113 113 112 112 114 118 123 125 119 111 103 97 90 90 95 98 92 81 66 52 48 42 38 46 37 25 36 17
253 266 279 310 16 37 60 60 77 88 92 98 102 103 105 109 112 113 115 118 122 123 124 118 112 108 104 98 90 85 84 81 76 71 55 46 43 37 32 35 63 85 31 5
Height
1501 1500 1496 1493 1494 1492 1492 1496 1495 1492 1492 1497 1494 1492 1491 1495 1497 1495 1496 1498 1502 1506 1510 1512 1515 1517 1520 1523 1525 1529 1532 1534 1537 1539 1541 1542 1544 1545 1545 1545 1545 1545 1545 1546
1498 1494 1488 1489 1492 1496 1497 1500 1497 1493 1494 1497 1493 1491 1488 1492 1492 1493 1493 1495 1498 1502 1505 1507 1510 1513 1516 1519 1522 1525 1528 1531 1534 1536 1538 1539 1541 1542 1542 1542 1542 1542 1542 1542
1489 1483 1485 1491 1495 1498 1496 1496 1493 1492 1489 1491 1493 1490 1484 1485 1489 1490 1491 1492 1494 1497 1500 1503 1506 1509 1513 1515 1518 1521 1524 1527 1529 1532 1535 1537 1538 1539 1540 1540 1540 1539 1539 1539
1484 1481 1488 1490 1490 1491 1492 1487 1490 1491 1493 1488 1485 1491 1474 1475 1481 1484 1485 1486 1488 1492 1496 1499 1502 1505 1508 1511 1514 1517 1521 1524 1526 1529 1532 1535 1536 1538 1538 1538 1537 1537 1536 1535
1479 1479 1484 1487 1484 1486 1486 1483 1486 1487 1489 1489 1484 1490 1476 1470 1476 1473 1475 1479 1483 1487 1492 1495 1498 1501 1504 1507 1511 1514 1518 1521 1524 1527 1530 1532 1534 1535 1535 1535 1534 1534 1533 1532
1472 1475 1478 1478 1478 1480 1482 1485 1486 1485 1484 1491 1481 1482 1475 1463 1467 1464 1466 1473 1478 1483 1488 1492 1495 1498 1501 1504 1508 1512 1516 1519 1522 1525 1527 1529 1530 1532 1532 1532 1532 1532 1532 1530
1474 1473 1475 1476 1477 1480 1482 1488 1492 1489 1485 1480 1464 1472 1467 1455 1458 1460 1463 1469 1475 1480 1484 1488 1491 1494 1498 1502 1506 1510 1513 1517 1520 1522 1525 1527 1528 1529 1529 1530 1530 1530 1531 1530
1470 1471 1467 1470 1473 1474 1476 1480 1489 1489 1480 1468 1461 1470 1459 1455 1460 1462 1463 1466 1471 1477 1481 1484 1488 1491 1495 1499 1503 1507 1511 1514 1518 1520 1522 1524 1525 1527 1527 1527 1528 1528 1528 1528
1461 1464 1458 1462 1465 1467 1470 1471 1468 1475 1476 1479 1468 1458 1453 1455 1458 1459 1460 1463 1468 1473 1478 1481 1485 1489 1492 1497 1501 1505 1509 1513 1515 1517 1520 1521 1522 1523 1525 1524 1525 1526 1525 1525
1460 1466 1459 1460 1463 1464 1462 1461 1467 1475 1485 1484 1470 1462 1454 1449 1449 1451 1455 1459 1464 1470 1475 1479 1483 1486 1491 1495 1499 1504 1508 1511 1513 1515 1518 1519 1520 1521 1522 1523 1523 1523 1522 1522
1464 1467 1461 1462 1463 1458 1464 1465 1466 1464 1464 1472 1472 1460 1441 1444 1447 1449 1451 1455 1460 1466 1471 1475 1480 1485 1488 1493 1497 1502 1506 1509 1511 1513 1515 1516 1518 1519 1520 1520 1521 1521 1520 1519
1468 1465 1461 1456 1453 1457 1455 1456 1458 1468 1466 1461 1464 1459 1439 1444 1448 1450 1452 1455 1459 1465 1470 1474 1479 1483 1487 1491 1496 1500 1504 1507 1509 1511 1513 1514 1515 1516 1518 1519 1519 1519 1518 1517
1470 1470 1470 1464 1462 1459 1458 1456 1456 1456 1459 1460 1462 1455 1441 1445 1448 1451 1453 1455 1459 1465 1470 1474 1478 1482 1486 1490 1494 1498 1502 1505 1507 1509 1511 1512 1514 1515 1516 1517 1517 1516 1516 1515
1475 1469 1469 1466 1458 1460 1462 1460 1459 1460 1459 1455 1451 1447 1441 1443 1447 1450 1453 1456 1460 1464 1469 1473 1477 1481 1486 1490 1493 1496 1500 1503 1505 1507 1509 1511 1512 1513 1514 1514 1514 1514 1513 1512
1475 1470 1467 1465 1464 1464 1464 1462 1460 1461 1458 1458 1451 1448 1446 1446 1449 1452 1453 1455 1459 1463 1467 1471 1476 1480 1484 1488 1491 1495 1498 1500 1503 1506 1508 1510 1511 1512 1512 1512 1512 1511 1510 1508
1476 1474 1471 1470 1465 1465 1464 1460 1459 1458 1456 1454 1452 1450 1448 1451 1453 1453 1453 1454 1457 1461 1466 1471 1475 1479 1483 1487 1490 1493 1495 1498 1502 1505 1508 1510 1511 1511 1511 1510 1509 1508 1506 1504
1475 1476 1475 1470 1463 1468 1465 1456 1455 1454 1452 1453 1453 1452 1453 1454 1455 1455 1455 1454 1456 1461 1465 1470 1475 1479 1483 1486 1489 1491 1494 1498 1502 1506 1508 1509 1510 1510 1509 1508 1506 1504 1502 1499
1479 1477 1474 1469 1471 1478 1459 1463 1463 1462 1459 1459 1459 1460 1460 1460 1459 1459 1457 1456 1457 1461 1465 1470 1475 1479 1483 1487 1489 1492 1495 1499 1503 1506 1508 1508 1508 1508 1507 1505 1503 1501 1498 1496
1480 1478 1474 1470 1466 1460 1458 1467 1469 1467 1462 1466 1466 1464 1462 1461 1460 1461 1462 1460 1460 1463 1467 1471 1475 1479 1485 1488 1491 1493 1497 1501 1505 1507 1507 1507 1507 1506 1505 1503 1500 1498 1496 1493
1479 1478 1475 1471 1475 1469 1465 1471 1471 1469 1462 1469 1468 1466 1464 1462 1459 1467 1468 1466 1466 1468 1470 1474 1479 1483 1487 1491 1494 1497 1501 1504 1506 1507 1506 1506 1505 1504 1503 1501 1498 1496 1494 1492
1474 1475 1474 1472 1473 1464 1472 1472 1469 1468 1465 1470 1469 1468 1466 1466 1469 1472 1472 1472 1472 1474 1477 1480 1484 1488 1491 1495 1498 1501 1503 1505 1506 1506 1506 1505 1504 1503 1501 1499 1497 1495 1494 1491
1471 1470 1470 1470 1472 1472 1476 1473 1474 1473 1473 1471 1471 1470 1470 1471 1472 1474 1476 1477 1478 1481 1483 1486 1489 1493 1497 1499 1502 1504 1506 1506 1506 1506 1506 1505 1504 1503 1501 1499 1497 1495 1493 1490
1474 1474 1472 1473 1474 1475 1477 1478 1477 1476 1473 1472 1471 1471 1472 1473 1476 1478 1480 1483 1485 1487 1490 1493 1495 1498 1501 1504 1506 1507 1507 1507 1507 1507 1506 1505 1504 1502 1501 1499 1498 1496 1493 1490
1476 1478 1477 1475 1473 1477 1479 1478 1476 1475 1473 1472 1472 1473 1474 1476 1479 1482 1485 1488 1491 1493 1496 1498 1501 1503 1506 1507 1508 1509 1509 1509 1509 1508 1507 1506 1505 1504 1501 1500 1498 1496 1493 1490
1477 1478 1477 1476 1477 1479 1480 1479 1478 1476 1475 1474 1475 1477 1479 1481 1484 1487 1490 1493 1496 1499 1501 1504 1506 1508 1510 1511 1511 1511 1511 1511 1510 1509 1508 1507 1506 1504 1503 1500 1498 1496 1493 1491
1478 1479 1478 1478 1481 1481 1483 1481 1480 1479 1479 1479 1480 1482 1485 1487 1489 1492 1495 1499 1502 1504 1506 1508 1510 1512 1513 1514 1514 1513 1513 1512 1512 1511 1510 1509 1508 1506 1504 1502 1499 1496 1494 1491